Tracking 20083 objects as of 9-Dec-2019
HD Live streaming from Space Station
objects crossing your sky now

COSMOS 2251 DEB

Track COSMOS 2251 DEB now!
10-day predictions


NORAD ID: 37521
Int'l Code: 1993-036BNA
Perigee: 560.8 km
Apogee: 633.9 km
Inclination: 74.0 °
Period: 96.5 minutes
Semi major axis: 6968 km
RCS: 0.0084 m2 (small)
Launch date: June 16, 1993
Source: Commonwealth of Independent States (former USSR) (CIS)
Launch site: PLESETSK MISSILE AND SPACE COMPLEX (PKMTR)

Note: This is SATELLITE DEBRIS
aabbcc
Your satellite tracking list
Your tracking list is empty




NASA's NSSDC Master Catalog

Two Line Element Set (TLE):
1 37521U 93036BNA 19340.04015001 +.00001319 +00000-0 +12907-3 0  9993
2 37521 074.0485 251.5726 0052395 156.1097 216.0202 14.92476994195844
Source of the keplerian elements: AFSPC